Starlink 30591

operational
NORAD ID: 58088 Int'l Des: 2023-160 Owner: SPXS Country: US Constellation: starlink
LEOCIRCULAR

关于 Starlink 30591

正在加载描述...

实时位置

正在加载3D地球...

即将过境

高度历史

Altitude vs Time

uPlot chart will show altitude changes over time

两行轨道根数

1 58088U 23160P 25306.01076862 .00001094 00000-0 96018-4 0 9999
2 58088 43.0049 53.8554 0001678 270.2907 89.7743 15.02536753113718
Epoch: Nov 2, 2025 • Age: 36 hours

当前状态

高度 570.8 km
速度 7.58 km/s
星下点 -41.79°S, 67.56°E
发射日期 Oct 18, 2023
运行时间 2 years
类型 internet

技术详情

分类 Payload
质量 730.00 kg
干质量 700.00 kg
总质量 730.00 kg
长度 0.30 m
直径 4.10 m
跨度 29.00 m
形状 Box + pan
制造商 SPXS
平台类型 Starlink V2M
阶段状态 In Orbit
所有者/国家 SPXS/US

大型星座

Loading constellations...